Location: Del Amo
(33.8464°N, 118.2104°W)
Time: 22:06:20
(UTC+00:00)

Courier 1B Rocket - Pass Details

Date: 15 September 2024
Orbit: 920 x 1201 km, 28.3° (Epoch: 13 October)

Event Time Altitude Azimuth Distance (km) Brightness Sun altitude
Rises 05:46:30 0° 266° (W) 3,995 8.6 -43.5°
Reaches altitude 10° 05:50:14 10° 249° (WSW) 3,071 7.7 -44.0°
Enters shadow 05:50:18 10° 248° (WSW) 3,056 7.7 -44.0°
